Regional Weather Roundup
Issued by NWS Kansas City/Pleasant Hill, MO

Home | Current Version | Previous Version | Text Only | Print | Product List | Glossary On
Versions: 1 2 3 4 5 6 7 8 9 10 11 12 13 14 15 16 17 18 19 20 21 22 23 24 25 26 27
000
ASUS43 KEAX 231110
RWREAX

WEATHER ROUNDUP FOR EASTERN KANSAS AND NORTHWEST MISSOURI
NATIONAL WEATHER SERVICE KANSAS CITY/PLEASANT HILL MO
600 AM CDT SUN APR 23 2017

KSZ040-057-103>105-MOZ028-029-037-043-231200-
...KANSAS CITY METROPOLITAN AREA...

CITY           SKY/WX    TMP DP  RH WIND       PRES   REMARKS
K.C. INTL      CLEAR     44  30  57 N3        30.16S
K.C. DOWNTOWN  CLEAR     43  37  79 NW3       30.16S
LEES SUMMIT    CLEAR     42  33  70 CALM      30.16S
OLATHE - IXD   CLEAR     39  32  76 NW3       30.17S
OLATHE - OJC   CLEAR     44  33  65 N7        30.16S
LAWRENCE       CLEAR     34  33  96 W6        30.17S WCI  29

$$

MOZ001>008-011>017-020>025-030>033-038>040-044>046-053-054-231200-
...NORTHERN AND CENTRAL MISSOURI...

CITY           SKY/WX    TMP DP  RH WIND       PRES   REMARKS
ST. JOSEPH     CLEAR     34  33  96 CALM      30.18S
MOSBY          SUNNY     36  34  93 CALM      30.17S
WHITEMAN AFB   CLEAR     40  37  88 CALM      30.14R
CLINTON        CLEAR     39  34  81 CALM      30.15R
SEDALIA        NOT AVBL
WARSAW         NOT AVBL
CHILLICOTHE      N/A     35  33  92 CALM      30.18R
KIRKSVILLE     CLEAR     33  32  96 N5        30.16S WCI  29

$$

MOZ041-047>049-056>058-063>065-088>090-097-231200-
...EASTERN AND SOUTHERN MISSOURI...

CITY           SKY/WX    TMP DP  RH WIND       PRES   REMARKS
ST. LOUIS INTL NOT AVBL
SPIRIT OF STL  CLEAR     36  34  92 CALM      30.09R
COLUMBIA       CLEAR     40  33  76 N7        30.13R
JEFFERSON CITY CLEAR     41  33  73 NW5       30.13R
ROLLA          CLEAR     40  32  73 N3        30.07S
OSAGE BEACH    CLEAR     40  35  83 N3        30.13R
SPRINGFIELD    CLEAR     40  36  86 N6        30.10R
BRANSON        CLEAR     41  39  93 CALM      30.10R
JOPLIN         CLEAR     41  39  93 N3        30.14R
WEST PLAINS    CLEAR     44  35  70 N10       30.05R

$$

IAZ060-094-KSZ022-034>040-054-083-096-NEZ052-066-093-231200-
...KANSAS...SOUTHEAST NEBRASKA AND IOWA...

CITY           SKY/WX    TMP DP  RH WIND       PRES   REMARKS
TOPEKA         CLEAR     37  36  96 CALM      30.17F
MANHATTAN      CLEAR     33  32  96 CALM      30.18F
EMPORIA        CLEAR     40  35  83 NW6       30.18R
CHANUTE        CLEAR     39  34  82 N5        30.15F
WICHITA        CLEAR     39  36  89 NW6       30.18F WCI  35
OMAHA          CLEAR     42  35  76 SE3       30.16F
LINCOLN        CLEAR     34  31  88 CALM      30.19S
FALLS CITY     CLEAR     38  33  82 CALM      30.17S
LAMONI         CLEAR     44  30  57 W6        30.17R
DES MOINES     CLEAR     45  30  55 SW3       30.15F

$$





USA.gov is the U.S. government's official web portal to all federal, state and local government web resources and services.